Time,TemperatureF,DewpointF,PressureIn,WindDirection,WindDirectionDegrees,WindSpeedMPH,WindSpeedGustMPH,Humidity,HourlyPrecipIn,Conditions,Clouds,dailyrainin,SolarRadiationWatts/m^2,SoftwareType,DateUTC
2013-08-14 00:00:00,71.6,69.5,30.05,NNW,346,2.0,2.0,93,0.00,,,0.00,0,Wunderground v.1.15,2013-08-14 10:00:00,
2013-08-14 00:10:00,71.6,69.2,30.05,NNW,346,1.0,1.0,92,0.00,,,0.00,0,Wunderground v.1.15,2013-08-14 10:10:00,
2013-08-14 00:15:00,71.7,69.3,30.05,NNW,346,1.0,1.0,92,0.00,,,0.00,0,Wunderground v.1.15,2013-08-14 10:15:00,
2013-08-14 00:20:00,71.8,69.3,30.05,NNW,348,0.0,0.0,92,0.00,,,0.00,0,Wunderground v.1.15,2013-08-14 10:20:00,
2013-08-14 00:25:00,71.8,69.3,30.05,NNW,348,1.0,1.0,92,0.00,,,0.00,0,Wunderground v.1.15,2013-08-14 10:25:00,
2013-08-14 00:30:00,71.7,69.3,30.04,NNW,348,0.0,0.0,92,0.00,,,0.00,0,Wunderground v.1.15,2013-08-14 10:30:00,
2013-08-14 00:35:00,71.4,69.3,30.04,NNW,348,0.0,0.0,93,0.00,,,0.00,0,Wunderground v.1.15,2013-08-14 10:35:00,
2013-08-14 00:40:00,71.3,69.2,30.04,NNW,348,0.0,0.0,93,0.00,,,0.00,0,Wunderground v.1.15,2013-08-14 10:40:00,
2013-08-14 00:45:00,71.1,69.0,30.04,NNW,348,0.0,0.0,93,0.00,,,0.00,0,Wunderground v.1.15,2013-08-14 10:45:00,
2013-08-14 00:55:00,70.8,68.7,30.04,NNW,348,0.0,0.0,93,0.00,,,0.00,0,Wunderground v.1.15,2013-08-14 10:55:00,
2013-08-14 01:00:00,70.5,68.4,30.04,NNW,348,0.0,4.0,93,0.00,,,0.00,0,Wunderground v.1.15,2013-08-14 11:00:00,
2013-08-14 01:10:00,70.1,68.3,30.04,NNW,348,3.0,3.0,94,0.00,,,0.00,0,Wunderground v.1.15,2013-08-14 11:10:00,
2013-08-14 01:15:00,70.0,68.2,30.03,NNW,342,3.0,3.0,94,0.00,,,0.00,0,Wunderground v.1.15,2013-08-14 11:15:00,
2013-08-14 01:20:00,69.8,68.0,30.03,NNW,342,3.0,3.0,94,0.00,,,0.00,0,Wunderground v.1.15,2013-08-14 11:20:00,
2013-08-14 01:30:00,69.1,67.3,30.03,NNW,342,1.0,1.0,94,0.00,,,0.00,0,Wunderground v.1.15,2013-08-14 11:30:00,
2013-08-14 01:35:00,68.9,67.1,30.03,NNW,342,0.0,1.0,94,0.00,,,0.00,0,Wunderground v.1.15,2013-08-14 11:35:00,
2013-08-14 01:40:00,68.9,67.1,30.02,NW,309,1.0,2.0,94,0.00,,,0.00,0,Wunderground v.1.15,2013-08-14 11:40:00,
2013-08-14 01:45:00,68.9,67.1,30.02,NW,309,1.0,2.0,94,0.00,,,0.00,0,Wunderground v.1.15,2013-08-14 11:45:00,
2013-08-14 01:50:00,68.8,67.0,30.02,NW,309,1.0,1.0,94,0.00,,,0.00,0,Wunderground v.1.15,2013-08-14 11:50:00,
2013-08-14 01:55:00,68.5,66.4,30.01,NW,309,3.0,3.0,93,0.00,,,0.00,0,Wunderground v.1.15,2013-08-14 11:55:00,
2013-08-14 02:00:00,68.3,66.5,30.02,NW,310,3.0,3.0,94,0.00,,,0.00,0,Wunderground v.1.15,2013-08-14 12:00:00,
2013-08-14 02:10:00,68.2,66.1,30.01,NW,310,1.0,1.0,93,0.00,,,0.00,0,Wunderground v.1.15,2013-08-14 12:10:00,
2013-08-14 02:15:00,68.4,66.3,30.01,NW,310,1.0,6.0,93,0.00,,,0.00,0,Wunderground v.1.15,2013-08-14 12:15:00,
2013-08-14 02:20:00,68.4,66.3,30.01,NW,310,3.0,3.0,93,0.00,,,0.00,0,Wunderground v.1.15,2013-08-14 12:20:00,
2013-08-14 02:25:00,68.3,66.2,30.00,NW,310,3.0,3.0,93,0.00,,,0.00,0,Wunderground v.1.15,2013-08-14 12:25:00,
2013-08-14 02:30:00,68.1,66.0,30.00,NW,310,2.0,2.0,93,0.00,,,0.00,0,Wunderground v.1.15,2013-08-14 12:30:00,
2013-08-14 02:40:00,67.9,66.1,30.00,NW,310,0.0,0.0,94,0.00,,,0.00,0,Wunderground v.1.15,2013-08-14 12:40:00,
2013-08-14 02:45:00,67.8,66.0,30.00,NW,310,0.0,0.0,94,0.00,,,0.00,0,Wunderground v.1.15,2013-08-14 12:45:00,
2013-08-14 02:50:00,67.9,66.1,30.00,NW,310,0.0,0.0,94,0.00,,,0.00,0,Wunderground v.1.15,2013-08-14 12:50:00,
2013-08-14 02:55:00,68.0,66.2,30.00,NW,309,0.0,0.0,94,0.00,,,0.00,0,Wunderground v.1.15,2013-08-14 12:55:00,
2013-08-14 03:00:00,68.0,66.2,30.00,North,360,1.0,4.0,94,0.00,,,0.00,0,Wunderground v.1.15,2013-08-14 13:00:00,
2013-08-14 03:10:00,68.1,66.3,30.00,NW,309,3.0,3.0,94,0.00,,,0.00,0,Wunderground v.1.15,2013-08-14 13:10:00,
2013-08-14 03:15:00,68.0,66.2,29.99,NW,309,3.0,3.0,94,0.00,,,0.00,0,Wunderground v.1.15,2013-08-14 13:15:00,
2013-08-14 03:20:00,67.7,65.9,29.99,NW,308,2.0,4.0,94,0.00,,,0.00,0,Wunderground v.1.15,2013-08-14 13:20:00,
2013-08-14 03:25:00,67.7,66.2,29.99,NW,308,2.0,4.0,95,0.00,,,0.00,0,Wunderground v.1.15,2013-08-14 13:25:00,
2013-08-14 03:30:00,67.8,66.3,29.99,NW,306,2.0,3.0,95,0.00,,,0.00,0,Wunderground v.1.15,2013-08-14 13:30:00,
2013-08-14 03:35:00,67.9,66.4,29.99,NW,307,3.0,3.0,95,0.00,,,0.00,0,Wunderground v.1.15,2013-08-14 13:35:00,
2013-08-14 03:40:00,67.9,66.1,29.99,NW,306,2.0,3.0,94,0.00,,,0.00,0,Wunderground v.1.15,2013-08-14 13:40:00,
2013-08-14 03:45:00,67.7,65.9,29.99,NW,307,1.0,3.0,94,0.00,,,0.00,0,Wunderground v.1.15,2013-08-14 13:45:00,
2013-08-14 03:55:00,67.6,66.1,29.99,NW,306,1.0,1.0,95,0.00,,,0.00,0,Wunderground v.1.15,2013-08-14 13:55:00,
2013-08-14 04:00:00,67.3,65.8,29.99,NW,306,0.0,0.0,95,0.00,,,0.00,0,Wunderground v.1.15,2013-08-14 14:00:00,
2013-08-14 04:10:00,67.2,65.7,29.99,NW,306,0.0,0.0,95,0.00,,,0.00,0,Wunderground v.1.15,2013-08-14 14:10:00,
2013-08-14 04:15:00,67.1,65.6,29.99,NW,306,0.0,0.0,95,0.00,,,0.00,0,Wunderground v.1.15,2013-08-14 14:15:00,
2013-08-14 04:20:00,67.3,66.1,30.00,NW,306,0.0,1.0,96,0.00,,,0.00,0,Wunderground v.1.15,2013-08-14 14:20:00,
2013-08-14 04:25:00,67.2,65.7,30.00,NW,307,2.0,2.0,95,0.00,,,0.00,0,Wunderground v.1.15,2013-08-14 14:25:00,
2013-08-14 04:30:00,67.1,65.9,30.00,NW,306,2.0,2.0,96,0.00,,,0.00,0,Wunderground v.1.15,2013-08-14 14:30:00,
2013-08-14 04:40:00,67.6,66.1,30.00,NW,306,3.0,3.0,95,0.00,,,0.00,0,Wunderground v.1.15,2013-08-14 14:40:00,
2013-08-14 04:45:00,67.6,66.1,30.00,NW,306,2.0,3.0,95,0.00,,,0.00,0,Wunderground v.1.15,2013-08-14 14:45:00,
2013-08-14 04:55:00,67.8,66.3,30.00,NW,306,3.0,3.0,95,0.00,,,0.00,0,Wunderground v.1.15,2013-08-14 14:55:00,
2013-08-14 05:00:00,67.7,65.9,30.00,NW,306,3.0,3.0,94,0.00,,,0.00,0,Wunderground v.1.15,2013-08-14 15:00:00,
2013-08-14 05:10:00,67.2,65.7,30.00,NW,306,2.0,3.0,95,0.00,,,0.00,0,Wunderground v.1.15,2013-08-14 15:10:00,
2013-08-14 05:15:00,67.1,65.6,30.00,NW,306,2.0,3.0,95,0.00,,,0.00,0,Wunderground v.1.15,2013-08-14 15:15:00,
2013-08-14 05:20:00,66.9,65.7,30.00,NW,306,2.0,2.0,96,0.00,,,0.00,0,Wunderground v.1.15,2013-08-14 15:20:00,
2013-08-14 05:25:00,66.9,65.7,30.00,NW,306,2.0,3.0,96,0.00,,,0.00,0,Wunderground v.1.15,2013-08-14 15:25:00,
2013-08-14 05:30:00,67.0,65.8,30.00,NW,306,2.0,2.0,96,0.00,,,0.00,0,Wunderground v.1.15,2013-08-14 15:30:00,
2013-08-14 05:35:00,67.0,65.5,30.00,NW,306,1.0,2.0,95,0.00,,,0.00,0,Wunderground v.1.15,2013-08-14 15:35:00,
2013-08-14 05:40:00,66.9,65.4,30.00,NW,306,0.0,0.0,95,0.00,,,0.00,0,Wunderground v.1.15,2013-08-14 15:40:00,
2013-08-14 05:50:00,66.4,65.2,30.00,NW,306,0.0,0.0,96,0.00,,,0.00,0,Wunderground v.1.15,2013-08-14 15:50:00,
2013-08-14 05:55:00,66.4,65.2,30.00,NW,306,0.0,0.0,96,0.00,,,0.00,0,Wunderground v.1.15,2013-08-14 15:55:00,
2013-08-14 06:00:00,66.6,65.4,30.00,NW,306,1.0,3.0,96,0.00,,,0.00,0,Wunderground v.1.15,2013-08-14 16:00:00,
2013-08-14 06:10:00,66.7,65.2,30.00,NW,306,2.0,4.0,95,0.00,,,0.00,11,Wunderground v.1.15,2013-08-14 16:10:00,
2013-08-14 06:15:00,66.8,65.3,30.00,NW,306,2.0,4.0,95,0.00,,,0.00,16,Wunderground v.1.15,2013-08-14 16:15:00,
2013-08-14 06:25:00,67.1,65.6,30.00,NW,306,1.0,4.0,95,0.00,,,0.00,25,Wunderground v.1.15,2013-08-14 16:25:00,
2013-08-14 06:30:00,67.2,65.4,30.00,NW,306,0.0,0.0,94,0.00,,,0.00,33,Wunderground v.1.15,2013-08-14 16:30:00,
2013-08-14 06:35:00,67.3,65.8,30.00,NW,306,0.0,0.0,95,0.00,,,0.00,33,Wunderground v.1.15,2013-08-14 16:35:00,
2013-08-14 06:45:00,67.9,66.1,30.00,NW,306,0.0,3.0,94,0.00,,,0.00,54,Wunderground v.1.15,2013-08-14 16:45:00,
2013-08-14 06:50:00,68.4,66.3,30.01,NW,306,1.0,3.0,93,0.00,,,0.00,67,Wunderground v.1.15,2013-08-14 16:50:00,
2013-08-14 06:55:00,68.9,66.5,30.01,NW,306,2.0,3.0,92,0.00,,,0.00,65,Wunderground v.1.15,2013-08-14 16:55:00,
2013-08-14 07:00:00,69.3,66.9,30.01,NW,306,2.0,2.0,92,0.00,,,0.00,40,Wunderground v.1.15,2013-08-14 17:00:00,
2013-08-14 07:10:00,69.8,67.1,30.02,NW,306,0.0,0.0,91,0.00,,,0.00,171,Wunderground v.1.15,2013-08-14 17:10:00,
2013-08-14 07:15:00,70.3,67.5,30.03,NW,306,0.0,0.0,91,0.00,,,0.00,185,Wunderground v.1.15,2013-08-14 17:15:00,
2013-08-14 07:20:00,70.9,67.8,30.03,NW,306,0.0,0.0,90,0.00,,,0.00,209,Wunderground v.1.15,2013-08-14 17:20:00,
2013-08-14 07:30:00,72.3,68.5,30.03,NW,306,1.0,1.0,88,0.00,,,0.00,246,Wunderground v.1.15,2013-08-14 17:30:00,
2013-08-14 07:35:00,72.6,68.8,30.03,NW,306,1.0,1.0,88,0.00,,,0.00,265,Wunderground v.1.15,2013-08-14 17:35:00,
2013-08-14 07:40:00,73.2,69.1,30.03,NW,306,0.0,0.0,87,0.00,,,0.00,290,Wunderground v.1.15,2013-08-14 17:40:00,
2013-08-14 07:45:00,73.7,69.2,30.03,NW,306,0.0,0.0,86,0.00,,,0.00,306,Wunderground v.1.15,2013-08-14 17:45:00,
2013-08-14 07:50:00,74.1,69.3,30.03,NW,306,0.0,0.0,85,0.00,,,0.00,323,Wunderground v.1.15,2013-08-14 17:50:00,
2013-08-14 08:00:00,75.2,70.0,30.03,NW,306,0.0,0.0,84,0.00,,,0.00,367,Wunderground v.1.15,2013-08-14 18:00:00,
2013-08-14 08:10:00,76.3,70.4,30.03,NW,306,0.0,0.0,82,0.00,,,0.00,403,Wunderground v.1.15,2013-08-14 18:10:00,
2013-08-14 08:20:00,77.2,70.9,30.03,NW,306,0.0,2.0,81,0.00,,,0.00,445,Wunderground v.1.15,2013-08-14 18:20:00,
2013-08-14 08:30:00,77.5,70.8,30.04,ENE,73,1.0,1.0,80,0.00,,,0.00,478,Wunderground v.1.15,2013-08-14 18:30:00,
2013-08-14 08:35:00,77.9,70.9,30.04,ENE,74,1.0,1.0,79,0.00,,,0.00,497,Wunderground v.1.15,2013-08-14 18:35:00,
2013-08-14 08:40:00,78.1,70.7,30.03,ENE,74,0.0,0.0,78,0.00,,,0.00,517,Wunderground v.1.15,2013-08-14 18:40:00,
2013-08-14 08:50:00,78.5,70.7,30.04,ENE,74,0.0,3.0,77,0.00,,,0.00,555,Wunderground v.1.15,2013-08-14 18:50:00,
2013-08-14 08:55:00,78.2,70.8,30.03,ENE,74,1.0,3.0,78,0.00,,,0.00,571,Wunderground v.1.15,2013-08-14 18:55:00,
2013-08-14 09:01:00,78.6,71.2,30.03,ENE,74,1.0,1.0,78,0.00,,,0.00,585,Wunderground v.1.15,2013-08-14 19:01:00,
2013-08-14 09:15:00,79.1,70.9,30.04,South,190,2.0,5.0,76,0.00,,,0.00,638,Wunderground v.1.15,2013-08-14 19:15:00,
2013-08-14 09:25:00,79.4,71.9,30.03,ESE,115,3.0,6.0,78,0.00,,,0.00,675,Wunderground v.1.15,2013-08-14 19:25:00,
2013-08-14 09:30:00,79.7,72.2,30.03,SSE,155,3.0,6.0,78,0.00,,,0.00,691,Wunderground v.1.15,2013-08-14 19:30:00,
2013-08-14 09:35:00,80.2,72.7,30.03,SE,136,3.0,6.0,78,0.00,,,0.00,708,Wunderground v.1.15,2013-08-14 19:35:00,
2013-08-14 09:45:00,80.4,71.7,30.03,SE,138,5.0,5.0,75,0.00,,,0.00,737,Wunderground v.1.15,2013-08-14 19:45:00,
2013-08-14 09:50:00,81.0,73.9,30.03,SSE,158,5.0,10.0,79,0.00,,,0.00,752,Wunderground v.1.15,2013-08-14 19:50:00,
2013-08-14 09:55:00,80.0,73.6,30.03,SE,134,9.0,10.0,81,0.00,,,0.00,763,Wunderground v.1.15,2013-08-14 19:55:00,
2013-08-14 10:00:00,78.9,73.3,30.03,ESE,117,11.0,12.0,83,0.00,,,0.00,779,Wunderground v.1.15,2013-08-14 20:00:00,
2013-08-14 10:10:00,79.2,73.6,30.03,SE,136,9.0,9.0,83,0.00,,,0.00,812,Wunderground v.1.15,2013-08-14 20:10:00,
2013-08-14 10:22:00,78.7,73.5,30.02,ESE,117,11.0,11.0,84,0.00,,,0.00,840,Wunderground v.1.15,2013-08-14 20:22:00,
2013-08-14 10:30:00,78.9,73.3,30.03,East,80,10.0,10.0,83,0.00,,,0.00,861,Wunderground v.1.15,2013-08-14 20:30:00,
2013-08-14 10:35:00,79.1,73.5,30.03,SE,136,10.0,10.0,83,0.00,,,0.00,872,Wunderground v.1.15,2013-08-14 20:35:00,
2013-08-14 10:40:00,79.2,73.6,30.02,ESE,105,8.0,13.0,83,0.00,,,0.00,884,Wunderground v.1.15,2013-08-14 20:40:00,
2013-08-14 10:45:00,79.4,73.8,30.02,SE,143,9.0,13.0,83,0.00,,,0.00,911,Wunderground v.1.15,2013-08-14 20:45:00,
2013-08-14 10:55:00,79.2,73.6,30.02,SE,136,10.0,10.0,83,0.00,,,0.00,937,Wunderground v.1.15,2013-08-14 20:55:00,
2013-08-14 11:00:00,79.3,73.7,30.02,East,99,11.0,11.0,83,0.00,,,0.00,970,Wunderground v.1.15,2013-08-14 21:00:00,
2013-08-14 11:10:00,79.3,73.7,30.02,SE,141,10.0,10.0,83,0.00,,,0.00,958,Wunderground v.1.15,2013-08-14 21:10:00,
2013-08-14 11:15:00,79.0,73.0,30.02,ESE,104,11.0,15.0,82,0.00,,,0.00,972,Wunderground v.1.15,2013-08-14 21:15:00,
2013-08-14 11:20:00,78.8,73.6,30.02,ESE,103,12.0,15.0,84,0.00,,,0.00,977,Wunderground v.1.15,2013-08-14 21:20:00,
2013-08-14 11:25:00,78.6,73.7,30.02,SE,134,11.0,15.0,85,0.00,,,0.00,991,Wunderground v.1.15,2013-08-14 21:25:00,
2013-08-14 11:30:00,78.8,73.9,30.02,ESE,109,10.0,10.0,85,0.00,,,0.00,995,Wunderground v.1.15,2013-08-14 21:30:00,
2013-08-14 11:40:00,78.9,73.7,30.01,SSE,150,10.0,11.0,84,0.00,,,0.00,1076,Wunderground v.1.15,2013-08-14 21:40:00,
2013-08-14 11:45:00,78.9,73.3,30.01,East,98,10.0,11.0,83,0.00,,,0.00,1130,Wunderground v.1.15,2013-08-14 21:45:00,
2013-08-14 11:55:00,79.3,74.0,30.01,NNE,28,9.0,10.0,84,0.00,,,0.00,1158,Wunderground v.1.15,2013-08-14 21:55:00,
2013-08-14 12:00:00,79.5,74.2,30.01,ESE,105,9.0,9.0,84,0.00,,,0.00,1100,Wunderground v.1.15,2013-08-14 22:00:00,
2013-08-14 12:10:00,79.6,74.3,30.01,SE,133,9.0,9.0,84,0.00,,,0.00,1146,Wunderground v.1.15,2013-08-14 22:10:00,
2013-08-14 12:15:00,79.7,73.7,30.01,East,98,9.0,9.0,82,0.00,,,0.00,1202,Wunderground v.1.15,2013-08-14 22:15:00,
2013-08-14 12:20:00,79.9,74.3,30.00,NE,46,8.0,11.0,83,0.00,,,0.00,1134,Wunderground v.1.15,2013-08-14 22:20:00,
2013-08-14 12:25:00,79.9,73.9,30.00,SE,130,8.0,11.0,82,0.00,,,0.00,1209,Wunderground v.1.15,2013-08-14 22:25:00,
2013-08-14 12:30:00,80.0,74.0,30.01,ENE,60,9.0,13.0,82,0.00,,,0.00,1157,Wunderground v.1.15,2013-08-14 22:30:00,
2013-08-14 12:35:00,79.4,73.4,30.00,NE,45,11.0,13.0,82,0.00,,,0.00,510,Wunderground v.1.15,2013-08-14 22:35:00,
2013-08-14 12:40:00,79.4,73.4,30.00,East,88,11.0,11.0,82,0.00,,,0.00,1190,Wunderground v.1.15,2013-08-14 22:40:00,
2013-08-14 12:45:00,79.2,73.6,30.00,ENE,68,10.0,11.0,83,0.00,,,0.00,534,Wunderground v.1.15,2013-08-14 22:45:00,
2013-08-14 12:50:00,79.7,73.7,30.00,SE,138,9.0,12.0,82,0.00,,,0.00,1095,Wunderground v.1.15,2013-08-14 22:50:00,
2013-08-14 13:00:00,79.3,73.3,30.00,ESE,120,10.0,10.0,82,0.00,,,0.00,1039,Wunderground v.1.15,2013-08-14 23:00:00,
2013-08-14 13:10:00,79.7,73.3,30.00,SE,144,7.0,8.0,81,0.00,,,0.00,1009,Wunderground v.1.15,2013-08-14 23:10:00,
2013-08-14 13:15:00,79.1,73.1,30.00,ESE,112,8.0,9.0,82,0.00,,,0.00,1009,Wunderground v.1.15,2013-08-14 23:15:00,
2013-08-14 13:20:00,79.0,73.0,30.00,East,80,9.0,9.0,82,0.00,,,0.00,1078,Wunderground v.1.15,2013-08-14 23:20:00,
2013-08-14 13:30:00,78.8,72.8,30.00,SE,140,8.0,8.0,82,0.00,,,0.00,775,Wunderground v.1.15,2013-08-14 23:30:00,
2013-08-14 13:40:00,78.9,73.3,29.99,ENE,71,7.0,7.0,83,0.00,,,0.00,698,Wunderground v.1.15,2013-08-14 23:40:00,
2013-08-14 13:45:00,78.8,73.2,30.00,ENE,65,9.0,9.0,83,0.00,,,0.00,1141,Wunderground v.1.15,2013-08-14 23:45:00,
2013-08-14 13:50:00,78.8,73.2,29.99,NNE,24,9.0,9.0,83,0.00,,,0.00,1063,Wunderground v.1.15,2013-08-14 23:50:00,
2013-08-14 13:55:00,79.0,73.7,29.99,SSE,148,8.0,17.0,84,0.00,,,0.00,1060,Wunderground v.1.15,2013-08-14 23:55:00,
2013-08-14 14:01:00,78.7,73.5,30.00,ENE,77,9.0,9.0,84,0.00,,,0.00,1039,Wunderground v.1.15,2013-08-15 00:01:00,
2013-08-14 14:10:00,78.9,73.7,29.99,East,79,8.0,10.0,84,0.00,,,0.00,1130,Wunderground v.1.15,2013-08-15 00:10:00,
2013-08-14 14:15:00,79.4,73.8,29.99,East,98,5.0,10.0,83,0.00,,,0.00,339,Wunderground v.1.15,2013-08-15 00:15:00,
2013-08-14 14:25:00,78.7,73.1,29.99,ESE,123,7.0,10.0,83,0.00,,,0.00,668,Wunderground v.1.15,2013-08-15 00:25:00,
2013-08-14 14:30:00,79.0,73.4,29.99,SE,138,7.0,7.0,83,0.00,,,0.00,1004,Wunderground v.1.15,2013-08-15 00:30:00,
2013-08-14 14:35:00,79.4,73.4,29.99,SE,142,5.0,7.0,82,0.00,,,0.00,383,Wunderground v.1.15,2013-08-15 00:35:00,
2013-08-14 14:40:00,78.6,73.0,29.99,ENE,70,7.0,9.0,83,0.00,,,0.00,267,Wunderground v.1.15,2013-08-15 00:40:00,
2013-08-14 14:45:00,78.3,73.1,29.99,ESE,107,6.0,9.0,84,0.00,,,0.00,376,Wunderground v.1.15,2013-08-15 00:45:00,
2013-08-14 14:55:00,78.1,72.9,29.98,East,88,5.0,5.0,84,0.00,,,0.00,209,Wunderground v.1.15,2013-08-15 00:55:00,
2013-08-14 15:00:00,77.6,73.1,29.98,SE,130,6.0,6.0,86,0.00,,,0.00,156,Wunderground v.1.15,2013-08-15 01:00:00,
2013-08-14 15:10:00,76.9,72.4,29.98,ENE,68,7.0,7.0,86,0.00,,,0.00,218,Wunderground v.1.15,2013-08-15 01:10:00,
2013-08-14 15:15:00,76.9,72.4,29.98,East,82,7.0,10.0,86,0.00,,,0.00,165,Wunderground v.1.15,2013-08-15 01:15:00,
2013-08-14 15:20:00,76.6,72.4,29.98,ESE,106,8.0,8.0,87,0.00,,,0.00,186,Wunderground v.1.15,2013-08-15 01:20:00,
2013-08-14 15:25:00,76.6,72.8,29.98,East,96,6.0,8.0,88,0.00,,,0.00,155,Wunderground v.1.15,2013-08-15 01:25:00,
2013-08-14 15:30:00,76.5,72.3,29.98,East,87,6.0,6.0,87,0.00,,,0.00,169,Wunderground v.1.15,2013-08-15 01:30:00,
2013-08-14 15:40:00,76.3,72.5,29.98,East,97,7.0,7.0,88,0.00,,,0.00,176,Wunderground v.1.15,2013-08-15 01:40:00,
2013-08-14 15:45:00,76.4,72.9,29.98,SE,146,6.0,15.0,89,0.00,,,0.00,176,Wunderground v.1.15,2013-08-15 01:45:00,
2013-08-14 15:50:00,76.4,72.9,29.98,SE,139,7.0,10.0,89,0.00,,,0.00,169,Wunderground v.1.15,2013-08-15 01:50:00,
2013-08-14 15:55:00,76.4,72.9,29.98,NE,46,6.0,10.0,89,0.00,,,0.00,190,Wunderground v.1.15,2013-08-15 01:55:00,
2013-08-14 16:00:00,76.4,72.9,29.98,East,90,6.0,6.0,89,0.00,,,0.00,139,Wunderground v.1.15,2013-08-15 02:00:00,
2013-08-14 16:10:00,76.4,72.9,29.97,SE,142,5.0,5.0,89,0.00,,,0.00,167,Wunderground v.1.15,2013-08-15 02:10:00,
2013-08-14 16:20:00,76.3,72.8,29.97,SE,140,6.0,9.0,89,0.00,,,0.00,156,Wunderground v.1.15,2013-08-15 02:20:00,
2013-08-14 16:25:00,76.3,72.8,29.97,SE,140,4.0,9.0,89,0.00,,,0.00,192,Wunderground v.1.15,2013-08-15 02:25:00,
2013-08-14 16:30:00,76.3,72.5,29.96,SSE,164,2.0,7.0,88,0.00,,,0.00,192,Wunderground v.1.15,2013-08-15 02:30:00,
2013-08-14 16:35:00,76.5,72.3,29.96,SSE,159,3.0,7.0,87,0.00,,,0.00,104,Wunderground v.1.15,2013-08-15 02:35:00,
2013-08-14 16:45:00,76.6,72.4,29.96,South,175,3.0,11.0,87,0.00,,,0.00,111,Wunderground v.1.15,2013-08-15 02:45:00,
2013-08-14 16:50:00,76.6,72.4,29.96,SSE,163,4.0,4.0,87,0.00,,,0.00,86,Wunderground v.1.15,2013-08-15 02:50:00,
2013-08-14 16:55:00,76.6,72.8,29.96,SE,136,3.0,7.0,88,0.00,,,0.00,70,Wunderground v.1.15,2013-08-15 02:55:00,
2013-08-14 17:00:00,76.5,73.0,29.96,SE,136,2.0,2.0,89,0.00,,,0.00,65,Wunderground v.1.15,2013-08-15 03:00:00,
2013-08-14 17:10:00,76.4,72.9,29.97,ENE,69,1.0,4.0,89,0.00,,,0.00,69,Wunderground v.1.15,2013-08-15 03:10:00,
2013-08-14 17:15:00,76.2,73.1,29.97,SE,134,2.0,4.0,90,0.00,,,0.00,63,Wunderground v.1.15,2013-08-15 03:15:00,
2013-08-14 17:20:00,76.1,73.0,29.97,SE,138,3.0,3.0,90,0.00,,,0.00,53,Wunderground v.1.15,2013-08-15 03:20:00,
2013-08-14 17:25:00,76.0,73.2,29.97,East,96,3.0,3.0,91,0.00,,,0.00,54,Wunderground v.1.15,2013-08-15 03:25:00,
2013-08-14 17:35:00,75.9,73.1,29.97,NNE,26,3.0,8.0,91,0.00,,,0.00,54,Wunderground v.1.15,2013-08-15 03:35:00,
2013-08-14 17:45:00,76.0,72.9,29.97,NNE,30,5.0,11.0,90,0.00,,,0.00,32,Wunderground v.1.15,2013-08-15 03:45:00,
2013-08-14 17:50:00,76.1,73.0,29.97,East,82,5.0,5.0,90,0.00,,,0.00,39,Wunderground v.1.15,2013-08-15 03:50:00,
2013-08-14 17:55:00,76.0,72.9,29.97,East,86,4.0,9.0,90,0.00,,,0.00,35,Wunderground v.1.15,2013-08-15 03:55:00,
2013-08-14 18:00:00,75.9,72.8,29.97,NE,46,5.0,5.0,90,0.00,,,0.00,28,Wunderground v.1.15,2013-08-15 04:00:00,
2013-08-14 18:05:00,75.8,73.0,29.97,East,84,4.0,6.0,91,0.00,,,0.00,28,Wunderground v.1.15,2013-08-15 04:05:00,
2013-08-14 18:10:00,75.6,72.8,29.97,NE,55,3.0,7.0,91,0.00,,,0.00,26,Wunderground v.1.15,2013-08-15 04:10:00,
2013-08-14 18:15:00,75.4,72.6,29.97,NNE,22,2.0,7.0,91,0.00,,,0.00,18,Wunderground v.1.15,2013-08-15 04:15:00,
2013-08-14 18:20:00,75.4,72.6,29.97,NE,39,2.0,10.0,91,0.00,,,0.00,14,Wunderground v.1.15,2013-08-15 04:20:00,
2013-08-14 18:25:00,75.2,72.4,29.97,ENE,62,1.0,10.0,91,0.00,,,0.00,12,Wunderground v.1.15,2013-08-15 04:25:00,
2013-08-14 18:35:00,75.0,72.2,29.98,ENE,65,3.0,3.0,91,0.00,,,0.00,9,Wunderground v.1.15,2013-08-15 04:35:00,
2013-08-14 18:40:00,74.9,72.1,29.98,NE,48,2.0,2.0,91,0.00,,,0.00,5,Wunderground v.1.15,2013-08-15 04:40:00,
2013-08-14 18:45:00,74.8,72.0,29.98,NE,49,1.0,2.0,91,0.00,,,0.00,5,Wunderground v.1.15,2013-08-15 04:45:00,
2013-08-14 18:55:00,74.6,71.8,29.99,NNW,338,2.0,2.0,91,0.00,,,0.00,0,Wunderground v.1.15,2013-08-15 04:55:00,
2013-08-14 19:00:00,74.6,71.8,29.99,ENE,59,2.0,6.0,91,0.00,,,0.00,0,Wunderground v.1.15,2013-08-15 05:00:00,
2013-08-14 19:10:00,74.4,71.3,30.00,ENE,72,2.0,5.0,90,0.00,,,0.00,0,Wunderground v.1.15,2013-08-15 05:10:00,
2013-08-14 19:15:00,74.3,70.8,30.00,ESE,118,2.0,5.0,89,0.00,,,0.00,0,Wunderground v.1.15,2013-08-15 05:15:00,
2013-08-14 19:20:00,74.3,70.8,30.00,ESE,123,1.0,1.0,89,0.00,,,0.00,0,Wunderground v.1.15,2013-08-15 05:20:00,
2013-08-14 19:25:00,74.2,70.7,30.00,ESE,115,1.0,1.0,89,0.00,,,0.00,0,Wunderground v.1.15,2013-08-15 05:25:00,
2013-08-14 19:30:00,74.1,70.6,30.01,NNE,19,1.0,1.0,89,0.00,,,0.00,0,Wunderground v.1.15,2013-08-15 05:30:00,
2013-08-14 19:35:00,74.0,70.9,30.01,NNW,334,0.0,4.0,90,0.00,,,0.00,0,Wunderground v.1.15,2013-08-15 05:35:00,
2013-08-14 19:40:00,73.9,70.8,30.02,NNW,334,0.0,0.0,90,0.00,,,0.00,0,Wunderground v.1.15,2013-08-15 05:40:00,
2013-08-14 19:45:00,73.9,70.8,30.02,NNW,334,0.0,0.0,90,0.00,,,0.00,0,Wunderground v.1.15,2013-08-15 05:45:00,
2013-08-14 19:55:00,73.8,70.7,30.03,NW,314,2.0,4.0,90,0.00,,,0.00,0,Wunderground v.1.15,2013-08-15 05:55:00,
2013-08-14 20:00:00,73.8,70.7,30.03,SE,145,1.0,1.0,90,0.00,,,0.00,0,Wunderground v.1.15,2013-08-15 06:00:00,
2013-08-14 20:10:00,73.6,70.5,30.03,NNW,335,1.0,5.0,90,0.00,,,0.00,0,Wunderground v.1.15,2013-08-15 06:10:00,
2013-08-14 20:15:00,73.5,70.4,30.04,NW,321,2.0,5.0,90,0.00,,,0.00,0,Wunderground v.1.15,2013-08-15 06:15:00,
2013-08-14 20:20:00,73.4,70.3,30.04,NW,321,1.0,1.0,90,0.00,,,0.00,0,Wunderground v.1.15,2013-08-15 06:20:00,
2013-08-14 20:30:00,73.1,70.3,30.04,NW,321,0.0,0.0,91,0.00,,,0.00,0,Wunderground v.1.15,2013-08-15 06:30:00,
2013-08-14 20:35:00,72.9,70.1,30.05,NW,321,0.0,0.0,91,0.00,,,0.00,0,Wunderground v.1.15,2013-08-15 06:35:00,
2013-08-14 20:40:00,72.7,69.9,30.04,NW,321,0.0,0.0,91,0.00,,,0.00,0,Wunderground v.1.15,2013-08-15 06:40:00,
2013-08-14 20:45:00,72.6,70.1,30.05,NW,321,0.0,0.0,92,0.00,,,0.00,0,Wunderground v.1.15,2013-08-15 06:45:00,
2013-08-14 20:50:00,72.5,70.0,30.05,NW,321,1.0,1.0,92,0.00,,,0.00,0,Wunderground v.1.15,2013-08-15 06:50:00,
2013-08-14 20:55:00,72.4,69.9,30.05,NW,321,1.0,1.0,92,0.00,,,0.00,0,Wunderground v.1.15,2013-08-15 06:55:00,
2013-08-14 21:00:00,72.4,69.9,30.06,NW,321,0.0,0.0,92,0.00,,,0.00,0,Wunderground v.1.15,2013-08-15 07:00:00,
2013-08-14 21:10:00,72.3,69.8,30.06,NW,321,0.0,0.0,92,0.00,,,0.00,0,Wunderground v.1.15,2013-08-15 07:10:00,
2013-08-14 21:15:00,72.2,69.7,30.06,NW,321,0.0,0.0,92,0.00,,,0.00,0,Wunderground v.1.15,2013-08-15 07:15:00,
2013-08-14 21:20:00,71.9,69.4,30.06,NW,321,0.0,0.0,92,0.00,,,0.00,0,Wunderground v.1.15,2013-08-15 07:20:00,
2013-08-14 21:30:00,71.7,69.6,30.06,NW,321,2.0,2.0,93,0.00,,,0.00,0,Wunderground v.1.15,2013-08-15 07:30:00,
2013-08-14 21:35:00,71.5,69.4,30.06,NW,321,2.0,2.0,93,0.00,,,0.00,0,Wunderground v.1.15,2013-08-15 07:35:00,
2013-08-14 21:45:00,71.1,69.0,30.06,NW,321,0.0,0.0,93,0.00,,,0.00,0,Wunderground v.1.15,2013-08-15 07:45:00,
2013-08-14 21:50:00,70.9,68.8,30.07,NW,321,0.0,0.0,93,0.00,,,0.00,0,Wunderground v.1.15,2013-08-15 07:50:00,
2013-08-14 21:55:00,70.7,68.6,30.07,NW,321,1.0,1.0,93,0.00,,,0.00,0,Wunderground v.1.15,2013-08-15 07:55:00,
2013-08-14 22:00:00,70.4,68.6,30.07,NW,321,2.0,2.0,94,0.00,,,0.00,0,Wunderground v.1.15,2013-08-15 08:00:00,
2013-08-14 22:10:00,70.1,68.3,30.07,NW,321,2.0,2.0,94,0.00,,,0.00,0,Wunderground v.1.15,2013-08-15 08:10:00,
2013-08-14 22:15:00,70.0,68.2,30.07,NW,321,2.0,2.0,94,0.00,,,0.00,0,Wunderground v.1.15,2013-08-15 08:15:00,
2013-08-14 22:20:00,69.9,68.1,30.07,NW,321,0.0,0.0,94,0.00,,,0.00,0,Wunderground v.1.15,2013-08-15 08:20:00,
2013-08-14 22:25:00,69.8,68.0,30.07,NW,319,1.0,4.0,94,0.00,,,0.00,0,Wunderground v.1.15,2013-08-15 08:25:00,
2013-08-14 22:30:00,69.7,67.9,30.07,NW,319,2.0,4.0,94,0.00,,,0.00,0,Wunderground v.1.15,2013-08-15 08:30:00,
2013-08-14 22:35:00,69.6,67.8,30.07,NW,319,2.0,4.0,94,0.00,,,0.00,0,Wunderground v.1.15,2013-08-15 08:35:00,
2013-08-14 22:45:00,69.5,67.7,30.07,NW,318,2.0,2.0,94,0.00,,,0.00,0,Wunderground v.1.15,2013-08-15 08:45:00,
2013-08-14 22:50:00,69.5,67.7,30.07,NW,315,1.0,1.0,94,0.00,,,0.00,0,Wunderground v.1.15,2013-08-15 08:50:00,
2013-08-14 22:55:00,69.4,67.6,30.06,NW,315,1.0,4.0,94,0.00,,,0.00,0,Wunderground v.1.15,2013-08-15 08:55:00,
2013-08-14 23:00:00,69.5,67.4,30.06,NW,315,2.0,4.0,93,0.00,,,0.00,0,Wunderground v.1.15,2013-08-15 09:00:00,
2013-08-14 23:10:00,69.6,66.9,30.06,NW,316,1.0,3.0,91,0.00,,,0.00,0,Wunderground v.1.15,2013-08-15 09:10:00,
2013-08-14 23:15:00,69.5,66.8,30.06,NW,316,2.0,3.0,91,0.00,,,0.00,0,Wunderground v.1.15,2013-08-15 09:15:00,
2013-08-14 23:20:00,69.3,66.6,30.06,NW,316,2.0,2.0,91,0.00,,,0.00,0,Wunderground v.1.15,2013-08-15 09:20:00,
2013-08-14 23:30:00,69.0,66.3,30.05,NW,315,1.0,3.0,91,0.00,,,0.00,0,Wunderground v.1.15,2013-08-15 09:30:00,
2013-08-14 23:35:00,68.9,66.2,30.06,NW,316,2.0,3.0,91,0.00,,,0.00,0,Wunderground v.1.15,2013-08-15 09:35:00,
2013-08-14 23:40:00,68.5,66.1,30.05,NW,316,1.0,1.0,92,0.00,,,0.00,0,Wunderground v.1.15,2013-08-15 09:40:00,
2013-08-14 23:45:00,68.4,66.0,30.05,NW,315,2.0,3.0,92,0.00,,,0.00,0,Wunderground v.1.15,2013-08-15 09:45:00,
2013-08-14 23:50:00,68.2,65.8,30.05,NNW,338,2.0,2.0,92,0.00,,,0.00,0,Wunderground v.1.15,2013-08-15 09:50:00,